User: anonymous   Login
Location: Stull Observatory
(42.2506°N, 77.7903°W)
Time: 11:38:14
(UTC-05:00)
Language:

Abrixas rocket - Orbit

View from above orbital plane
View from above orbital plane
View from above satellite
View from above satellite

Ground track
Ground track

The orbit data is extracted from the following two-line orbital elements,

1 25723U 99022C   15032.08506142  .00019084  00000-0  53043-3 0  8649
2 25723 048.4224 058.8743 0014099 223.2429 168.9478 15.36687407872273
Epoch (UTC): 01 February 2015 02:02:29
Eccentricity: 0.0014099
inclination: 48.4224°
perigee height: 446 km
apogee height: 465 km
right ascension of ascending node: 58.8743°
argument of perigee: 223.2429°
revolutions per day: 15.36687407
mean anomaly at epoch: 168.9478°
orbit number at epoch: 87227

The dashed part of the orbit path shows where the satellite is in the earth's shadow,  

DLR